Location: Peterborough
(44.3091°N, 78.3197°W)
Time: 05:03:10
(UTC-04:00)

Tiros 1 despin weight - Visible Passes

Search period start: 22 March 2023 00:00
Search period end: 01 April 2023 00:00
Orbit: 588 x 635 km, 48.2° (Epoch: 21 March)

Date Brightness Start Highest point End Pass type
(mag) Time Alt. Az. Time Alt. Az. Time Alt. Az.
22 Mar ? 05:27:07 34° SSW 05:27:07 34° SSW 05:30:49 10° SSE visible
23 Mar ? 05:41:39 19° SSW 05:41:39 19° SSW 05:44:02 10° S visible
24 Mar ? 21:38:23 10° SSW 21:38:54 13° SSW 21:38:54 13° SSW visible
25 Mar ? 20:14:19 10° SSE 20:15:42 11° SE 20:16:49 10° ESE visible
25 Mar ? 21:52:04 10° SW 21:53:48 23° SW 21:53:48 23° SW visible
26 Mar ? 20:26:18 10° S 20:29:35 21° SE 20:31:30 16° ESE visible
26 Mar ? 22:06:07 10° WSW 22:08:28 31° WSW 22:08:28 31° WSW visible
27 Mar ? 20:39:33 10° SSW 20:43:33 36° SE 20:45:57 20° E visible
27 Mar ? 22:20:23 10° WSW 22:22:55 33° W 22:22:55 33° W visible
28 Mar ? 20:53:20 10° SW 20:57:37 60° SSE 21:00:12 23° ENE visible
28 Mar ? 22:34:46 10° W 22:37:08 30° WNW 22:37:08 30° WNW visible
29 Mar ? 21:07:26 10° WSW 21:11:49 90° NNE 21:14:15 26° ENE visible
29 Mar ? 22:49:11 10° W 22:51:10 25° WNW 22:51:10 25° WNW visible
30 Mar ? 21:21:43 10° W 21:26:05 66° NNW 21:28:09 30° ENE visible
30 Mar ? 23:03:33 10° WNW 23:05:04 20° WNW 23:05:04 20° WNW visible
31 Mar ? 21:36:06 10° W 21:40:24 54° N 21:41:55 35° NE visible
31 Mar ? 23:17:51 10° WNW 23:18:50 16° WNW 23:18:50 16° WNW visible
